sat.trackr.live / text

‹ back to catalog

STARLINK-32038

NORAD 60281 · 2024-132D

PAYLOAD ACTIVE UNKNOWN

§ Identity

Operator
Country
US
Launch date
2024-07-28
Launch site
AFETR
Launch vehicle
Mass (kg)
RCS (m²)

Purposes: comms

External: N2YO · Heavens-Above · Gunter

§ Orbital elements

Epoch: 2026-05-25T01:14:14.379648Z

Period
94.11 min
Inclination
53.1608°
Eccentricity
0.0001174
Mean motion
15.30193507 rev/d
Perigee alt
474.4 km
Apogee alt
476.0 km
Semi-major
6,853.4 km
B*
3.4835e-5
RAAN
57.6024°
Arg perigee
94.1211°
Mean anomaly
265.9924°
Rev number
10,325

§ Raw data

STARLINK-320381 60281U 24132D   26145.05155532  .00000673  00000+0  34835-4 0  99952 60281  53.1608  57.6024 0001174  94.1211 265.9924 15.30193507103259

JSON: /api/v1/satellites/60281 · /tle

For live sub-satellite position, see the globe view (requires WebGL).

§ Visibility from observer

Set your observer location to see the next 7 days of passes ≥ 10°. The values pass through the URL so the page stays shareable.

No JS? Fill the form by hand. The geolocation button needs JavaScript.